Regional Weather Roundup
Issued by NWS Upton, NY

Current Version | Previous Version | Text Only | Print | Product List | Glossary On
Versions: 1 2 3 4 5 6 7 8 9 10 11 12 13 14 15 16 17 18 19 20 21 22 23 24 25 26 27 28 29 30 31 32 33 34 35 36 37 38 39 40 41 42 43 44 45 46 47 48 49 50
000
ASUS41 KOKX 250108
RWROKX

REGIONAL WEATHER ROUNDUP
NATIONAL WEATHER SERVICE NEW YORK NY
800 PM EST FRI FEB 24 2017

NOTE: "FAIR" INDICATES FEW OR NO CLOUDS BELOW 12,000 FEET WITH NO
SIGNIFICANT WEATHER AND/OR OBSTRUCTIONS TO VISIBILITY.

NYZ071-072-176-178-NJZ106-104-250200-
NEW YORK CITY METRO AREA

CITY           SKY/WX    TMP DP  RH WIND       PRES   REMARKS
Central Park   CLEAR     62  54  74 S6        29.88S
Wall St Helipt NOT AVBL
LaGuardia APRT PTCLDY    58  52  80 S13       29.85F
Kennedy INTL   PTCLDY    54  54 100 S21       29.88S
Breezy Point     N/A     46 N/A N/A S15         N/A
Newark/Liberty PTCLDY    64  55  72 S7        29.85S
Teterboro      CLEAR     62  55  77 S8        29.84S
$$

NYZ177-179-078>081-250200-
LONG ISLAND NEW YORK

CITY           SKY/WX    TMP DP  RH WIND       PRES   REMARKS
Jones Beach      N/A     48 N/A N/A S12         N/A
Matinecock PT    N/A     61 N/A N/A S10G20      N/A
Farmingdale    CLEAR     54  52  93 S10       29.89F
MacArthur/ISP  PTCLDY    53  52  96 SW9       29.89F
Shirley        CLEAR     54  53  97 S6        29.90F
Westhampton    CLEAR     51  49  92 S9        29.92S
Southampton    NOT AVBL
Bridgehampton  NOT AVBL
East Hampton     N/A     51  50  96 S5        29.91S
Montauk          N/A     51  51 100 S7        29.93F
$$

NYZ052-065-067-250200-
HUDSON VALLEY

CITY           SKY/WX    TMP DP  RH WIND       PRES   REMARKS
White Plains   CLEAR     58  53  84 S9        29.86S
Newburgh       CLEAR     61  54  77 S8        29.84S
Montgomery     CLEAR     56  50  80 S3        29.81S
Poughkeepsie   CLEAR     62  51  67 S6        29.82S
Albany         CLOUDY    66  51  58 S17G25    29.77S
$$

NJZ001-105-106-008-010-013-015-019>022-104-250200-
NEW JERSEY

CITY           SKY/WX    TMP DP  RH WIND       PRES   REMARKS
Newark/Liberty PTCLDY    64  55  72 S7        29.85S
Teterboro      CLEAR     62  55  77 S8        29.84S
Caldwell       CLEAR     66  53  63 S7        29.85R
Somerville     CLEAR     64  52  64 SE6       29.82S
Linden           N/A     64  55  73 CALM      29.86R
Sussex         CLEAR     64  52  64 S3        29.82F
Andover          N/A     64  51  62 VRB5      29.82F
Trenton        CLEAR     63  56  78 S10       29.84S
Millville      MOCLDY    59  59 100 S7        29.86S
Atlantic City  MOCLDY    58  55  90 S7        29.87F
Wrightstown    CLEAR     61  56  86 S12       29.84S
Toms River     MOCLDY    57  56  96 S12       29.88F
Belmar         CLEAR     56  55  97 S8        29.88F
$$

PAZ047>061-062-071-250200-
EASTERN PENNSYLVANIA

CITY           SKY/WX    TMP DP  RH WIND       PRES   REMARKS
Philadelphia   PTCLDY    63  56  78 SE9       29.85S
Allentown      PTCLDY    66  53  63 S9G20     29.81F
Scranton       CLEAR     66  50  56 S8        29.78F
$$

CTZ002-004>006-009-010-012-RIZ004-006-007-MAZ004-011-015-250200-
SOUTHERN NEW ENGLAND
 IN CT

CITY           SKY/WX    TMP DP  RH WIND       PRES   REMARKS
Bradley INTL   CLOUDY    59  52  77 S9        29.87S
Hartford       MOCLDY    58  52  80 S8        29.87F
Danbury        CLEAR     58  53  84 S10       29.87S
Wtrbury/Oxford PTCLDY    55  50  82 S12G17    29.89S
Bridgeport     PTCLDY    54  50  86 SW3       29.88F
Meriden        PTCLDY    57  51  80 SE7       29.88F
New Haven      PTCLDY    48  47  96 E3        29.89F
Chester        CLOUDY    54  54 100 S6        29.90F
Groton         CLOUDY    48  47  96 CALM      29.91F FOG
Wilimantic     PTCLDY    60  55  83 S6        29.90F

 IN RI

CITY           SKY/WX    TMP DP  RH WIND       PRES   REMARKS
Providence     PTCLDY    49  46  90 S7        29.93S
Block Island   CLEAR     49  48  97 S12       29.93F
Westerly       CLOUDY    51  47  86 S5        29.93S
 IN MA

CITY           SKY/WX    TMP DP  RH WIND       PRES   REMARKS
Boston         PTCLDY    57  52  83 S12       29.89F
Worcester      CLEAR     57  50  77 S14       29.88F
Westfield      PTCLDY    58  52  80 S7        29.85S
Provincetown   CLEAR     49  47  93 S12       29.94S
Nantucket      CLEAR     47  45  93 S8        29.97S
$$

ANZ330-335-338-340-345-350-353-355-250200-
COASTAL MARINE OBSERVATIONS


STATION/POSITION TIME  SKY/WX   TEMP    WIND        PRES    VSBY  WAVE
                                AIR SEA DIR/SP/G                  HT/PER
                 (UTC)          (F)     (DEG/KT/KT) (MB)    (MI)  (FT/S)
NY HARB ENTRANCE 2350            48 44  180/ 14/ 16 1011.8          3/12
20 S FIRE ISLAND 0050            49 44  160/ 12/ 14 1012.1          3/11
GREAT SOUTH BAY  NOT AVBL
23 SSW MONTAUK P 2350            49 44              1013.9          3/10
15 E BARNEGAT LI 0030               44                N/A           4/12
HUDSON CANYON    2350               48              1013.8          4/11
KINGS POINT      0036            51 42              1011.0
EXECUTION ROCKS  NOT AVBL
CENTRAL LI SOUND 0015            46     170/  8/ 10   N/A           1/ 3
EASTERN LI SOUND NOT AVBL
ROBBINS REEF     0036            54     170/ 15/ 16 1011.1
$$


>>>>>>>>>>>>>>>>>>>>>>>>>>>> KEY <<<<<<<<<<<<<<<<<<<<<<<<<<<
>                                                          <
>     SKY/WX - Sky Condition/Present Weather               <
>     TMP    - Temperature in Fahrenheit                   <
>     DP     - Dew Point in Fahrenheit                     <
>     RH     - Relative Humidity in Percent                <
>     WIND   - Direction (from) and Speed in MPH           <
>     PRES   - Mean Sea Level Pressure (inches of Hg)      <
>     WCI    - Wind Chill Index                            <
>     VSB    - VISIBILITY IN MILES                         <
>     HX     - HEAT INDEX                                  <
>     TC     - TEMPERATURE IN CELSIUS                      <
>     VRB    - VARIABLE WIND DIRECTION                     <
>                                                          <
>>>>>>>>>>>>>>>>>>>>>>>>>>>> KEY <<<<<<<<<<<<<<<<<<<<<<<<<<<



USA.gov is the U.S. government's official web portal to all federal, state and local government web resources and services.